Location: Unspecified
(29.9680°N, 0.0000°E)
Time: 08:35:30
(UTC+00:00)

A-11 Canister half - Pass Details

Date: 24 June 2019
Orbit: 1526 x 1683 km, 47.3° (Epoch: 21 July)

Event Time Altitude Azimuth Distance (km) Brightness Sun altitude
Rises 01:56:02 0° 209° (SSW) 4,826 - -30.0°
Reaches altitude 10° 01:59:18 10° 204° (SSW) 3,820 - -29.7°
Exits shadow 02:06:12 43° 169° (S) 2,098 9.3 -28.9°
Maximum altitude 02:08:31 51° 132° (SE) 1,915 9.3 -28.6°
Drops below altitude 10° 02:17:28 10° 60° (ENE) 3,721 11.8 -27.5°
Sets 02:20:36 0° 55° (NE) 4,693 12.6 -27.1°
